Stations météo

réclame
Mon MeteoGroup
Örskär, Suède (2488): Température de l'air & dewpoint: 18.05.2019 05:00:00 - 24.05.2019 05:00:00 (CEST)Örskär, Suède (2488): Vitesse du vent & gusts: 18.05.2019 05:00:00 - 24.05.2019 05:00:00 (CEST)Örskär, Suède (2488): Direction du vent: 18.05.2019 05:00:00 - 24.05.2019 05:00:00 (CEST)Örskär, Suède (2488): reduced air pressure: 18.05.2019 05:00:00 - 24.05.2019 05:00:00 (CEST)Örskär, Suède (2488): visibility: 18.05.2019 05:00:00 - 24.05.2019 05:00:00 (CEST)Örskär, Suède (2488): Quantités de précipitations: 18.05.2019 05:00:00 - 24.05.2019 05:00:00 (CEST)
Date & Time tt [°C] td [°C] ff [km/h] ff [knt] fx [km/h] fx [knt] dd ppp [hPa] vv [km] rr [mm]
24.05.2019 05:00:00 - - - - - - - - - -
24.05.2019 04:00:00 9,3 9,2 2 1 8 5 SE 1009,8 0,2 0,0
24.05.2019 03:00:00 9,1 8,8 5 3 11 6 SSE 1010,0 0,3 0,0
24.05.2019 02:00:00 8,8 8,7 8 4 19 11 SE 1010,3 0,6 0,0
24.05.2019 01:00:00 8,0 7,7 16 8 22 12 E 1010,7 0,7 0,0
24.05.2019 00:00:00 7,9 7,6 10 5 15 8 E 1011,1 0,6 0,0
23.05.2019 23:00:00 7,8 7,5 11 6 16 8 E 1011,2 0,5 0,0
23.05.2019 22:00:00 7,6 7,3 7 4 10 5 E 1011,3 0,5 0,0
23.05.2019 21:00:00 7,5 7,1 8 4 10 5 NE 1011,3 1,9 0,0
23.05.2019 20:00:00 7,5 6,9 7 4 13 7 N 1011,4 13 0,0
23.05.2019 19:00:00 7,6 7,0 10 5 16 9 NNW 1011,4 15 0,2
23.05.2019 18:00:00 7,4 6,8 15 8 19 10 WNW 1011,5 14 0,0
23.05.2019 17:00:00 7,8 7,2 19 10 23 13 W 1011,6 6 0,0
23.05.2019 16:00:00 8,2 7,6 23 13 30 16 W 1011,6 29 0,2
23.05.2019 15:00:00 8,1 7,7 28 15 32 17 W 1011,4 12 0,7
23.05.2019 14:00:00 8,3 7,7 16 8 24 13 W 1011,5 8 1,6
23.05.2019 13:00:00 7,8 7,4 18 10 25 14 W 1012,0 7 0,9
23.05.2019 12:00:00 7,7 7,1 16 9 21 11 WNW 1011,3 7 0,3
23.05.2019 11:00:00 7,9 7,0 20 11 25 13 WNW 1011,4 13 0,0
23.05.2019 10:00:00 8,1 7,2 17 9 24 13 WNW 1011,5 12 0,0
23.05.2019 09:00:00 7,9 7,3 21 11 23 12 WNW 1011,0 9 0,0
23.05.2019 08:00:00 7,8 6,9 21 11 25 14 NW 1010,6 11 0,0
23.05.2019 07:00:00 8,0 7,1 25 13 27 15 NW 1010,4 12 0,0
23.05.2019 06:00:00 8,4 7,5 16 9 28 15 NW 1010,5 11 0,0
23.05.2019 05:00:00 8,2 7,3 24 13 33 18 N 1010,2 11 0,0
23.05.2019 04:00:00 8,0 7,1 24 13 34 18 N 1010,5 10 0,0
23.05.2019 03:00:00 8,3 7,5 29 16 33 18 NNW 1010,7 9 0,0
23.05.2019 02:00:00 8,7 7,8 25 14 29 16 NW 1011,3 9 0,0
23.05.2019 01:00:00 8,8 8,0 24 13 28 15 NNW 1011,1 9 0,0
23.05.2019 00:00:00 8,9 8,1 18 10 24 13 NNW 1011,2 9 0,0
22.05.2019 23:00:00 9,0 8,4 15 8 23 13 N 1011,4 9 0,0
22.05.2019 22:00:00 8,9 8,4 21 12 24 13 NNW 1011,5 10 0,0
22.05.2019 21:00:00 8,7 8,4 18 10 22 12 NNW 1011,5 2,7 0,0
22.05.2019 20:00:00 8,7 8,4 16 8 18 10 NNW 1011,4 0,4 0,0
22.05.2019 19:00:00 8,8 8,3 8 5 18 10 N 1011,4 0,5 0,0
22.05.2019 18:00:00 9,5 8,7 16 9 22 12 N 1011,7 - 0,0
22.05.2019 17:00:00 10,5 8,8 18 10 22 12 N 1011,9 19 0,0
22.05.2019 16:00:00 11,3 9,0 18 10 21 12 N 1012,3 23 0,0
22.05.2019 15:00:00 11,6 9,0 16 9 21 11 N 1012,7 26 0,0
22.05.2019 14:00:00 11,0 8,7 17 9 27 15 N 1012,8 18 0,0
22.05.2019 13:00:00 11,2 8,9 23 12 29 16 NNW 1012,7 21 0,0
22.05.2019 12:00:00 10,5 8,8 21 11 26 14 NNW 1012,9 25 0,0
22.05.2019 11:00:00 12,0 9,2 22 12 24 13 NNW 1012,6 29 0,0
22.05.2019 10:00:00 11,3 9,0 16 8 21 11 N 1012,3 32 0,0
22.05.2019 09:00:00 11,2 9,1 15 8 19 10 N 1012,1 27 0,0
22.05.2019 08:00:00 10,4 8,8 10 5 22 12 NNW 1012,2 27 0,0
22.05.2019 07:00:00 10,0 8,6 17 9 21 12 NNW 1012,1 30 0,0
22.05.2019 06:00:00 9,6 8,5 16 9 21 11 N 1012,0 23 0,0
22.05.2019 05:00:00 9,4 8,6 17 9 22 12 NNW 1012,1 19 0,0
22.05.2019 04:00:00 9,4 8,6 13 7 21 11 N 1012,0 19 0,0
22.05.2019 03:00:00 9,6 8,8 14 8 19 10 N 1012,2 19 0,0
22.05.2019 02:00:00 9,6 8,7 13 7 17 9 N 1012,2 25 0,0
22.05.2019 01:00:00 9,7 8,8 14 7 21 11 N 1012,6 25 0,0
22.05.2019 00:00:00 10,1 9,0 14 8 20 11 N 1012,7 23 0,0
21.05.2019 23:00:00 10,2 9,1 18 10 21 11 NNE 1012,8 24 0,0
21.05.2019 22:00:00 10,4 9,0 19 10 22 12 NNE 1012,8 28 0,0
21.05.2019 21:00:00 10,6 8,9 16 9 19 11 N 1012,6 29 0,0
21.05.2019 20:00:00 11,0 9,1 16 9 18 10 NNE 1012,3 25 0,0
21.05.2019 19:00:00 11,6 9,2 12 7 20 11 NNE 1012,4 17 0,0
21.05.2019 18:00:00 11,6 9,0 16 9 22 12 NE 1012,4 30 0,0
21.05.2019 17:00:00 11,9 9,3 11 6 14 7 N 1012,6 22 0,0
21.05.2019 16:00:00 11,6 9,2 5 3 12 6 N 1012,9 25 0,0
21.05.2019 15:00:00 11,9 9,3 11 6 19 10 NNE 1012,8 28 0,0
21.05.2019 14:00:00 12,4 9,4 14 8 19 11 NE 1013,1 24 0,0
21.05.2019 13:00:00 11,9 9,1 16 9 21 11 N 1012,9 28 0,0
21.05.2019 12:00:00 12,3 9,5 16 9 21 11 NNE 1013,1 32 0,0
21.05.2019 11:00:00 11,6 9,3 11 6 19 10 N 1013,0 29 0,0
21.05.2019 10:00:00 11,5 9,2 17 9 24 13 N 1012,6 22 0,0
21.05.2019 09:00:00 11,3 9,2 14 7 16 9 N 1012,5 31 0,0
21.05.2019 08:00:00 11,2 8,9 9 5 15 8 NNE 1012,3 33 0,0
21.05.2019 07:00:00 11,3 9,4 14 8 21 11 NE 1012,2 33 0,0
21.05.2019 06:00:00 10,3 9,1 15 8 20 11 NE 1012,0 21 0,0
21.05.2019 05:00:00 10,5 9,4 18 10 24 13 ENE 1012,1 18 0,0
21.05.2019 04:00:00 10,6 9,7 20 11 24 13 NE 1012,2 18 0,0
21.05.2019 03:00:00 9,7 8,9 16 8 19 10 ENE 1012,4 12 0,0
21.05.2019 02:00:00 9,4 8,6 6 3 10 6 E 1012,5 12 0,0
21.05.2019 01:00:00 10,2 9,1 7 4 12 7 SSE 1012,5 14 0,0
21.05.2019 00:00:00 12,5 10,6 12 6 25 14 SE 1012,6 26 0,0
20.05.2019 23:00:00 13,2 10,9 17 9 21 11 SSE 1012,4 33 0,0
20.05.2019 22:00:00 13,2 10,6 17 9 22 12 SE 1012,4 41 0,0
20.05.2019 21:00:00 12,6 9,2 5 3 36 20 SSW 1012,0 37 0,0
20.05.2019 20:00:00 13,7 9,7 28 15 36 19 SE 1011,4 37 0,0
20.05.2019 19:00:00 13,5 9,4 25 13 35 19 ESE 1011,6 31 0,0
20.05.2019 18:00:00 14,1 8,9 27 15 39 21 ESE 1011,9 31 0,0
20.05.2019 17:00:00 14,1 9,1 12 6 22 12 E 1012,4 40 0,0
20.05.2019 16:00:00 15,4 9,5 12 6 17 9 E 1012,3 42 0,0
20.05.2019 15:00:00 13,0 9,1 10 5 16 9 E 1012,6 33 0,0
20.05.2019 14:00:00 10,7 8,5 10 5 15 8 ENE 1012,9 32 0,0
20.05.2019 13:00:00 10,4 8,2 13 7 18 10 ENE 1012,9 37 0,0
20.05.2019 12:00:00 12,2 8,1 10 5 21 11 ENE 1013,0 36 0,0
20.05.2019 11:00:00 10,6 8,4 15 8 20 11 NNE 1012,9 30 0,0
20.05.2019 10:00:00 9,9 8,2 16 9 19 11 NNE 1012,9 33 0,0
20.05.2019 09:00:00 10,1 8,2 16 9 18 10 NNE 1013,2 32 0,0
20.05.2019 08:00:00 9,9 8,2 17 9 24 13 NNE 1013,2 35 0,0
20.05.2019 07:00:00 9,9 8,2 13 7 14 8 NNE 1013,3 42 0,0
20.05.2019 06:00:00 9,6 8,0 14 8 16 8 NNE 1013,2 34 0,0
20.05.2019 05:00:00 8,9 8,1 15 8 22 12 ENE 1013,5 29 0,0
20.05.2019 04:00:00 8,8 8,0 16 9 19 11 NNE 1013,8 18 0,0
20.05.2019 03:00:00 8,9 7,8 11 6 14 8 NE 1014,2 27 0,0
20.05.2019 02:00:00 9,1 8,3 9 5 11 6 E 1014,3 15 0,0
20.05.2019 01:00:00 9,9 8,5 10 5 21 11 SE 1014,5 30 0,0
20.05.2019 00:00:00 10,2 8,5 23 12 30 16 SE 1014,4 35 0,0
19.05.2019 23:00:00 10,6 9,2 25 14 27 15 ESE 1014,4 32 0,0
19.05.2019 22:00:00 10,6 9,4 19 11 30 16 ESE 1014,3 26 0,1
19.05.2019 21:00:00 10,0 8,9 23 12 35 19 ESE 1014,3 20 0,3
19.05.2019 20:00:00 10,1 8,2 22 12 29 16 ESE 1014,2 42 0,0
19.05.2019 19:00:00 11,2 8,8 14 8 22 12 SE 1014,2 42 0,0
19.05.2019 18:00:00 12,1 9,1 19 10 25 14 SE 1014,6 44 0,0
19.05.2019 17:00:00 12,9 10,4 14 7 21 11 SE 1014,7 39 0,0
19.05.2019 16:00:00 12,5 11,1 6 4 9 5 E 1014,7 33 0,0
19.05.2019 15:00:00 11,0 9,6 0 0 8 5 N 1014,9 16 0,1
19.05.2019 14:00:00 12,8 10,3 6 3 25 13 SSE 1015,2 24 0,0
19.05.2019 13:00:00 11,1 9,4 15 8 22 12 SE 1015,0 41 0,0
19.05.2019 12:00:00 10,7 9,0 10 5 19 10 SSE 1015,2 41 0,0
19.05.2019 11:00:00 9,7 8,6 11 6 27 14 E 1014,6 22 0,3
19.05.2019 10:00:00 9,5 8,9 19 10 24 13 E 1014,6 7 1,1
19.05.2019 09:00:00 8,9 8,0 9 5 16 9 N 1014,0 6 2,2
19.05.2019 08:00:00 9,8 8,6 16 9 36 19 SE 1015,3 6 1,4
19.05.2019 07:00:00 9,7 8,1 16 9 27 15 E 1014,1 16 0,6
19.05.2019 06:00:00 10,3 7,4 20 11 33 18 ESE 1014,3 34 0,1
19.05.2019 05:00:00 10,4 6,9 27 14 36 20 ESE 1014,7 37 0,2
19.05.2019 04:00:00 11,5 5,8 23 12 32 17 E 1015,0 50 0,0
19.05.2019 03:00:00 11,5 5,6 27 14 31 17 E 1015,4 50 0,0
19.05.2019 02:00:00 10,9 5,4 25 14 32 18 E 1015,7 50 0,0
19.05.2019 01:00:00 10,6 5,4 25 13 33 18 E 1016,5 50 0,0
19.05.2019 00:00:00 10,8 5,5 27 15 37 20 E 1017,1 50 0,0
18.05.2019 23:00:00 11,5 5,1 31 17 44 24 E 1017,4 50 0,0
18.05.2019 22:00:00 11,2 5,3 22 12 34 18 E 1017,7 50 0,0
18.05.2019 21:00:00 11,5 5,6 23 13 29 15 E 1017,7 50 0,0
18.05.2019 20:00:00 12,0 5,4 22 12 29 16 ESE 1017,8 50 0,0
18.05.2019 19:00:00 12,3 5,2 21 11 27 15 E 1017,9 50 0,0
18.05.2019 18:00:00 12,7 5,6 21 11 27 15 E 1018,2 50 0,0
18.05.2019 17:00:00 14,3 5,6 18 10 27 15 E 1018,7 47 0,0
18.05.2019 16:00:00 15,9 6,1 12 7 23 13 E 1019,2 45 0,0
18.05.2019 15:00:00 15,5 5,7 16 8 24 13 E 1019,4 46 0,0
18.05.2019 14:00:00 14,0 5,9 20 11 24 13 E 1019,7 40 0,0
18.05.2019 13:00:00 13,2 6,3 14 7 23 12 ESE 1020,2 43 0,0
18.05.2019 12:00:00 12,9 5,8 15 8 26 14 E 1020,4 50 0,0
18.05.2019 11:00:00 14,6 5,4 15 8 26 14 E 1020,7 42 0,0
18.05.2019 10:00:00 13,8 4,9 16 9 29 16 ESE 1020,7 48 0,0
18.05.2019 09:00:00 13,8 5,2 19 11 31 17 E 1020,5 45 0,0
18.05.2019 08:00:00 12,3 5,0 21 11 29 16 ESE 1020,7 50 0,0
18.05.2019 07:00:00 11,5 4,9 23 12 29 15 E 1020,8 50 0,0
18.05.2019 06:00:00 10,4 5,8 23 12 27 15 E 1021,1 47 0,0
18.05.2019 05:00:00 8,9 6,3 24 13 28 15 E 1021,4 50 0,0

tt = Température de l'air
td = dewpoint
ff = Vitesse du vent
fx = gusts
dd = Direction du vent
ppp = reduced air pressure
vv = visibility
rr = Quantités de précipitations

stations d'obs. à proximité